STARLINK-32159, 60293

Orbit data source: Space-Track

STARLINK-32159, 60293 is a payload satellite owned by SpaceX/Seattle (US) in LEO that was launched on Sun, 28 Jul 2024 UTC via an FALCON 9 launch vehicle from the Air Force Eastern Test Range (AFETR). Payload-class satellites include a variety of spacecraft equipped with specific instruments for various scientific and technological missions. These include communications satellites like Starlink; space stations such as the ISS; scientific satellites like the Hubble; Earth observation satellites from companies like Planet Labs, Umbra, and HawkEye 360; GPS; miniature CubeSats for education and research; and military/defense satellites.

Loading next visibility...
Identifier
60293, 2024-132R
Orbit
LEO
Country
Flag of USUS
Related business
Manufacturer
SpaceX/Seattle
Mission
Operational Commercial Communications
Bus & Motor
STARLINK V2M, Unknown motor
Mass
730 kg wet, ~700 kg dry
Launch date (UTC)
2024-07-28 (2 years ago)
Launch vehicle
FALCON 9
Launch site
Air Force Eastern Test Range (AFETR)
Object type
Payload
Rocket body
Debris
Shape & HBR
Box + 2 Pan, 17.7 m
Radar Cross Section
33.884 m², Large (>1 m²)

Expand to show TLE details & history
Last TLE update: 13 hours ago

TLE from 13 hours ago
0 STARLINK-32159
1 60293U 24132R   26067.96534708 -.00000410  00000-0 -17025-5 0  9992
2 60293  53.1608  55.4947 0001528  84.4733 275.6442 15.30190803 91453
Epoch: 2026-03-08T23:10Z
TLE epoch observation values (Epoch: 2026-03-08T23:10:05.987Z)
Latitude
-0.00004°
Longitude
-98.69535°
Altitude
476.039 km
Speed
7.629 km/s
True Right ascension
03h 41m 58s
True Declination
0° 00' 00"
Sunlit
Object was in daylight at epoch
Visualization orbit readout
Latitude
Unknown
Longitude
Unknown
Altitude
Unknown
Speed
Unknown
Apparent Right ascension
Unknown
Apparent Declination
Unknown
Sunlit
N/A
Visualization observer readout
Local Sidereal Time
16:29:20
Azimuth
Unknown
Elevation
Unknown
Doppler factor
Unknown
Orbital elements
Apogee altitude
476.546 km
Perigee altitude
474.452 km
Semi-major axis
6,853.636 km
Eccentricity
0.00015
Inclination
53.1608°
RAAN
55.4947°
Arg. of periapsis
84.4733°
True anomaly
275.62677°
Mean anomaly
275.6442°
Eccentric anomaly
275.63549°
Mean motion
3.82527 °/min
Orbital period
94.11 mins
BSTAR
-0.0000017025
Loading maneuver chart data...
Computing Atmospheric mass density...
Loading historical data...
Loading historical data...
Loading historical data...
Loading historical data...
Loading historical data...
Loading historical data...
Loading historical data...

Documentation

Showing up to 5 results
|